This is the latest recevied weather packets stored in our database for station/object ac2ev. If no packets are shown the sender has not sent any weather packets the latest 10 day(s).
| Time | Temp. | Humidity | Pressure | Rain* | Wind** | Luminosity | Snow |
|---|---|---|---|---|---|---|---|
| 1787518154 | 17.78° C | 85% | 1007.7 hPa | 0.76 mm | - | - | - |
| 1787517723 | 18.33° C | 80% | 1007.5 hPa | 0.25 mm | - | - | - |
| 1787517427 | 20° C | 75% | 1007.4 hPa | 0.25 mm | - | - | - |
| 1787517122 | 21.11° C | 71% | 1006.9 hPa | 0 mm | - | - | - |
| 1787516817 | 21.11° C | 71% | 1006.6 hPa | 0 mm | - | - | - |
| 1787516514 | 21.11° C | 70% | 1006.6 hPa | 0 mm | - | - | - |
| 1787516213 | 21.11° C | 72% | 1006.6 hPa | 0 mm | - | - | - |
| 1787515911 | 21.11° C | 71% | 1006.5 hPa | 0 mm | - | - | - |
| 1787515611 | 21.67° C | 71% | 1006.5 hPa | 0 mm | - | - | - |
| 1787515431 | 21.67° C | 66% | 1006.6 hPa | 0 mm | - | - | - |
| 1787515010 | 22.22° C | 63% | 1006.5 hPa | 0 mm | - | - | - |
| 1787514709 | 22.22° C | 62% | 1006.4 hPa | 0 mm | - | - | - |
| 1787514408 | 22.78° C | 59% | 1006.3 hPa | 0 mm | - | - | - |
| 1787514107 | 23.33° C | 62% | 1006.2 hPa | 0 mm | - | - | - |
| 1787513808 | 22.78° C | 64% | 1006.3 hPa | 0 mm | - | - | - |
| 1787513506 | 22.22° C | 63% | 1006.1 hPa | 0 mm | - | - | - |
| 1787513205 | 22.78° C | 64% | 1006 hPa | 0 mm | - | - | - |
| 1787512906 | 22.22° C | 64% | 1006 hPa | 0 mm | - | - | - |
| 1787512603 | 22.22° C | 64% | 1006 hPa | 0 mm | - | - | - |
| 1787512304 | 22.22° C | 63% | 1006 hPa | 0 mm | - | - | - |
| 1787512003 | 22.78° C | 63% | 1006.1 hPa | 0 mm | - | - | - |
| 1787511706 | 22.78° C | 62% | 1006 hPa | 0 mm | - | - | - |
| 1787511403 | 22.78° C | 62% | 1006.2 hPa | 0 mm | - | - | - |
| 1787511104 | 22.78° C | 64% | 1006.3 hPa | 0 mm | - | - | - |
| 1787510803 | 22.78° C | 65% | 1006.3 hPa | 0 mm | - | - | - |
* Rain latest hour (hover to see other rain measurements)
** Current wind speed in m/s (hover to see current wind gust speed)